Lapse_Rate
6.6 6.4 6.3 6.1 6.0 5.9 5.8 5.7 5.7 5.7 5.8 5.8 5.8 6.0 6.5 6.8 7.0 7.2 7.3 7.2 7.3 7.2 7.3 7.3 7.1 7.0 6.8 6.7 6.4 6.1 5.9 5.9 5.9
6.5 6.4 6.2 6.0 6.0 5.9 5.8 5.7 5.7 5.7 5.8 5.8 5.9 6.4 6.6 6.9 7.2 7.5 7.4 7.4 7.4 7.3 7.2 7.1 7.2 7.3 7.1 6.9 6.8 6.6 6.3 6.0 6.0
6.5 6.3 6.1 6.0 5.9 5.8 5.8 5.7 5.6 5.7 5.8 5.9 6.4 6.6 6.8 7.0 7.3 7.6 7.5 7.6 7.6 7.5 7.3 7.3 7.4 7.5 7.4 7.2 7.1 7.0 6.8 6.6 6.2
6.4 6.2 6.0 6.0 5.9 5.8 5.8 5.7 5.7 5.8 5.8 6.2 6.6 6.8 7.0 7.1 7.2 7.2 7.3 7.4 7.4 7.4 7.3 7.3 7.4 7.6 7.6 7.5 7.3 7.1 7.0 6.8 6.7
6.3 6.1 6.0 5.9 5.9 5.9 5.8 5.7 5.8 5.8 6.1 6.5 6.7 6.9 6.9 7.0 7.2 7.1 7.1 7.2 7.2 7.2 7.3 7.4 7.4 7.4 7.5 7.5 7.4 7.3 7.1 7.0 6.8
6.3 6.1 6.0 6.0 5.9 5.8 5.8 5.8 5.9 6.1 6.3 6.6 6.8 7.0 7.1 7.1 7.2 7.0 7.0 7.0 6.9 7.0 7.2 7.3 7.3 7.4 7.4 7.4 7.3 7.2 7.2 7.0 6.9
6.3 6.1 6.1 6.0 5.9 5.9 5.9 5.9 6.1 6.3 6.7 6.9 7.0 7.1 7.1 7.1 7.0 6.8 6.7 6.7 6.8 6.8 7.1 7.1 7.1 7.2 7.1 7.1 7.1 7.2 7.1 7.1 7.0
6.2 6.1 6.1 6.0 6.1 6.1 6.1 6.2 6.4 6.6 6.8 7.0 7.1 7.1 7.0 7.0 6.9 6.6 6.5 6.4 6.4 6.6 6.7 6.8 6.9 6.9 6.9 7.0 6.9 7.0 7.1 7.1 7.1
6.2 6.2 6.1 6.1 6.1 6.1 6.2 6.3 6.5 6.6 6.8 6.9 6.9 6.9 6.8 6.6 6.8 6.2 6.1 6.1 6.1 6.2 6.2 6.3 6.5 6.6 6.7 6.8 6.8 6.8 6.8 6.9 6.9
6.2 6.1 6.1 6.0 6.0 6.1 6.2 6.3 6.5 6.6 6.7 6.8 6.8 6.8 6.7 6.4 6.6 6.3 6.0 6.0 6.0 6.0 6.1 6.1 6.1 6.3 6.4 6.4 6.7 6.9 6.6 6.6 6.6
6.1 6.0 6.0 6.0 6.0 6.0 6.2 6.3 6.4 6.5 6.6 6.7 6.7 6.5 6.3 6.2 6.2 6.2 6.2 6.2 6.2 6.2 6.3 6.3 6.2 6.1 6.4 6.5 6.5 6.7 6.6 6.5 6.5
6.0 6.0 5.9 5.9 6.0 6.0 6.0 6.2 6.3 6.4 6.5 6.5 6.4 6.1 6.1 6.0 6.0 6.3 6.4 6.5 6.4 6.4 6.4 6.5 6.4 6.3 6.4 6.7 6.8 6.6 6.6 6.6 6.5
5.9 5.9 5.8 5.8 5.8 5.9 6.0 6.1 6.2 6.3 6.2 6.1 6.0 5.9 5.9 6.1 6.1 6.2 6.3 6.4 6.6 6.5 6.4 6.5 6.5 6.5 6.4 6.5 6.7 6.8 6.6 6.6 6.6
5.8 5.8 5.7 5.7 5.8 5.9 5.9 6.0 6.1 6.1 6.0 5.9 5.9 5.7 5.7 5.7 5.9 5.9 5.9 6.0 6.0 6.2 6.4 6.4 6.3 6.4 6.5 6.4 6.5 6.7 6.7 6.5 6.4
5.7 5.7 5.6 5.6 5.6 5.6 5.7 5.8 5.8 5.9 5.9 5.8 5.8 5.8 5.9 5.8 5.8 5.9 6.0 6.0 6.0 6.0 6.1 6.2 6.2 6.1 6.4 6.5 6.5 6.6 6.5 6.6 6.5
5.6 5.6 5.5 5.5 5.5 5.6 5.6 5.7 5.6 5.6 5.5 5.6 5.6 5.6 5.6 5.7 5.8 5.9 6.0 6.0 6.0 6.0 6.0 6.0 6.0 6.2 6.2 6.2 6.3 6.3 6.4 6.5 6.5
5.5 5.5 5.6 5.5 5.4 5.4 5.4 5.4 5.4 5.4 5.3 5.2 5.2 5.3 5.6 5.8 5.6 5.5 5.6 5.8 5.8 5.9 5.9 5.8 5.9 5.9 5.9 6.2 6.1 6.3 6.4 6.3 6.5
5.5 5.4 5.3 5.4 5.4 5.4 5.3 5.2 5.1 5.1 5.2 5.3 5.3 5.3 5.3 5.3 5.4 5.4 5.4 5.6 5.8 5.8 5.9 6.0 5.9 5.8 5.8 5.8 5.9 6.1 6.1 6.3 6.3
5.4 5.4 5.4 5.4 5.3 5.3 5.1 5.0 5.1 5.1 5.1 5.2 5.1 5.2 5.1 5.1 5.2 5.1 5.3 5.4 5.4 5.7 5.7 5.9 6.1 5.8 5.7 5.7 5.6 5.8 6.0 6.0 6.1
5.5 5.4 5.3 5.2 5.1 5.1 5.1 5.0 5.0 5.0 5.0 5.1 5.1 5.2 5.2 5.2 5.3 5.5 5.5 5.1 5.0 5.0 5.3 5.4 5.6 5.9 5.8 5.6 5.5 5.5 5.6 5.8 6.0
Wind_Speed
13 14 14 14 14 14 14 14 13 13 13 13 13 13 14 16 8 8 10 12 10 8 6 8 12 11 11 12 13 8 8 7 6
13 14 13 13 13 13 13 13 13 13 13 13 13 13 13 14 9 10 13 14 6 6 9 9 10 11 11 11 12 13 7 7 8
12 13 12 12 12 12 11 12 12 11 11 11 12 12 12 12 10 9 15 15 12 9 9 10 10 10 10 11 11 10 10 10 9
10 11 11 10 10 10 11 11 11 10 9 9 10 11 12 11 5 10 15 13 10 9 9 10 10 10 10 10 10 10 10 9 9
9 9 9 9 9 9 10 11 11 9 8 9 10 11 15 10 10 15 14 11 10 11 11 11 11 11 10 9 9 9 9 9 10
6 5 4 5 5 6 6 8 10 14 12 6 12 12 11 10 15 15 14 12 10 11 10 10 11 10 10 9 9 9 7 8 9
2 1 3 5 8 6 8 10 9 11 11 8 14 10 13 9 13 14 12 10 10 13 14 15 16 17 15 12 10 10 10 10 10
7 8 10 10 13 14 13 13 11 10 8 9 10 11 9 9 13 13 13 11 12 13 15 15 15 17 17 15 15 14 14 14 15
11 10 11 11 12 12 13 12 13 12 11 10 8 10 8 7 12 13 14 12 12 13 14 15 15 14 16 16 16 15 16 15 15
9 7 9 10 11 11 10 10 10 10 9 10 8 7 8 9 12 12 12 10 11 12 13 14 14 14 14 15 15 17 18 17 16
6 7 8 9 10 11 10 7 7 6 7 6 7 6 6 3 11 10 9 7 7 9 11 12 13 14 14 12 13 15 16 17 17
7 5 7 8 10 10 12 8 12 5 8 5 6 5 6 10 10 9 6 2 4 6 9 10 10 11 12 12 12 13 14 16 17
8 7 6 10 10 9 7 3 4 4 5 4 4 4 8 8 11 9 8 10 11 9 10 9 8 9 10 11 11 12 13 15 16
7 6 7 10 9 7 4 3 3 3 4 5 3 3 4 6 5 4 5 8 8 9 12 9 5 8 9 10 11 12 14 14 15
8 6 6 8 4 4 4 4 3 3 3 5 2 3 3 2 1 2 3 4 7 8 8 10 3 5 8 9 11 13 14 14 13
7 6 7 9 3 4 5 4 4 4 5 3 4 2 4 4 4 3 2 4 6 4 7 8 8 8 8 9 11 14 17 16 14
7 6 4 6 4 5 5 5 3 3 4 2 2 3 3 3 1 2 1 1 5 3 3 3 4 6 7 7 8 12 16 16 15
5 5 4 4 4 3 2 3 5 3 3 4 2 3 2 3 2 1 1 2 2 1 3 4 2 3 6 7 6 11 13 15 15
3 2 4 4 3 3 2 2 2 3 3 2 3 0 3 1 4 3 4 4 4 4 2 4 4 4 3 5 4 11 13 14 14
3 2 2 1 1 1 2 3 4 2 1 1 2 2 2 3 3 4 4 4 4 3 3 7 3 4 1 4 5 11 14 12 13
Wind_Direction
48 44 39 36 34 32 30 28 26 23 20 18 14 5 353 340 22 22 35 35 2 0 1 31 31 27 22 12 6 318 286 284 273
48 43 37 35 33 31 28 25 23 20 18 15 8 0 348 339 339 25 52 17 17 30 48 25 12 6 5 7 6 14 352 318 303
49 41 36 33 32 30 26 21 16 13 12 10 360 346 341 346 35 14 46 25 20 29 23 12 4 360 357 356 356 3 8 13 9
50 44 35 30 28 25 20 14 6 2 2 359 345 333 329 331 337 59 44 18 16 21 18 9 4 359 356 353 353 352 351 352 357
66 41 30 24 22 17 12 3 353 343 327 328 333 330 319 292 53 53 38 15 15 20 14 3 1 351 357 355 354 352 353 352 347
83 48 26 2 360 351 352 345 336 327 329 277 320 329 328 27 76 54 34 13 18 15 9 9 6 2 352 343 344 351 349 354 349
38 240 345 306 326 298 301 310 323 5 4 346 349 3 352 7 90 61 41 18 30 30 30 27 20 23 13 2 357 354 2 345 339
28 38 9 11 8 2 5 359 2 349 2 359 357 357 358 7 77 62 49 29 29 25 23 23 16 16 20 26 30 32 25 23 20
18 24 21 24 4 8 0 359 354 351 10 356 4 354 356 17 97 76 60 40 31 24 25 28 19 13 11 20 24 24 21 19 17
18 16 25 22 10 2 351 351 345 342 3 354 9 353 6 16 109 92 75 55 39 24 20 18 14 12 11 16 24 25 15 11 10
24 22 20 23 4 349 347 354 344 348 358 338 14 3 30 3 112 98 78 67 59 43 29 21 15 9 3 6 15 20 12 6 1
27 29 30 3 354 3 356 6 359 10 357 351 10 40 21 71 73 62 55 56 38 41 27 22 15 14 12 6 10 14 11 8 1
37 27 24 359 5 16 353 5 2 13 3 339 3 54 57 55 54 36 31 26 16 8 8 13 17 26 19 15 18 13 14 7 0
49 43 21 4 16 16 359 350 9 25 351 319 37 65 56 45 45 3 7 39 12 6 358 3 31 22 23 18 14 13 6 6 359
30 38 36 15 27 6 1 1 344 42 337 312 317 146 137 140 200 262 307 44 2 4 8 345 120 43 16 10 4 5 1 355 357
37 28 38 13 26 22 14 340 354 3 349 9 352 265 175 195 218 216 58 22 343 7 7 15 19 6 3 9 2 360 356 350 346
55 36 31 28 21 26 22 17 347 339 26 19 283 347 339 355 214 78 79 269 336 347 354 356 1 349 352 6 2 1 352 348 345
51 44 32 31 35 32 21 25 22 355 339 27 96 9 325 326 302 215 215 246 281 278 309 291 212 330 336 348 16 2 352 345 344
95 47 37 46 29 38 353 23 13 40 356 351 9 272 163 314 327 332 307 332 13 315 323 319 227 226 274 344 5 4 344 340 341
115 52 48 58 63 5 18 10 4 357 12 11 328 318 302 225 212 284 315 339 331 322 314 280 284 250 173 339 346 350 340 336 338